sat.trackr.live / text

‹ back to catalog

STARLINK-36142

NORAD 66981 · 2025-288Y

PAYLOAD ACTIVE UNKNOWN

§ Identity

Operator
Country
US
Launch date
2025-12-08
Launch site
AFETR
Launch vehicle
Mass (kg)
RCS (m²)

Purposes: comms

External: N2YO · Heavens-Above · Gunter

§ Orbital elements

Epoch: 2026-09-20T07:55:18.627744Z

Period
94.27 min
Inclination
43.0020°
Eccentricity
0.0000966
Mean motion
15.27590779 rev/d
Perigee alt
482.4 km
Apogee alt
483.7 km
Semi-major
6,861.2 km
B*
4.6924e-4
RAAN
4.3539°
Arg perigee
280.0310°
Mean anomaly
80.0432°
Rev number
4,505

§ Raw data

STARLINK-361421 66981U 25288Y   26263.33007671  .00012677  00000+0  46924-3 0  99912 66981  43.0020   4.3539 0000966 280.0310  80.0432 15.27590779 45053

JSON: /api/v1/satellites/66981 · /tle

For live sub-satellite position, see the globe view (requires WebGL).

§ Visibility from observer

Set your observer location to see the next 7 days of passes ≥ 10°. The values pass through the URL so the page stays shareable.

No JS? Fill the form by hand. The geolocation button needs JavaScript.